UAL235 KLAX-PHNL

Flight info

Callsign UAL235
Flight time N/A
Altitude 36000
Route SUMMR2 DINTY DUETS 3335N12855W DADIE R576 DIALO/N0465F380 R576 DENNS MAGGI3
Aircraft B762/H-SDFGIRWY/S

Departure

Time 2026-04-26 03:48
Airport Los Angeles International Airport (KLAX)

Arrival

Time N/A
Airport Daniel K. Inouye International Airport (PHNL)
Time Latitude Longitude Altitude Speed Heading
2026-04-26 03:16 33.94089 -118.40932 133 ft 0 kts 264°
2026-04-26 03:28 33.94090 -118.40923 129 ft 2 kts 262°
2026-04-26 03:28 33.94091 -118.40909 133 ft 2 kts 263°
2026-04-26 03:29 33.94094 -118.40890 133 ft 2 kts 261°
2026-04-26 03:29 33.94097 -118.40870 133 ft 2 kts 257°
2026-04-26 03:29 33.94102 -118.40851 130 ft 2 kts 246°
2026-04-26 03:29 33.94115 -118.40839 128 ft 2 kts 198°
2026-04-26 03:30 33.94123 -118.40838 132 ft 0 kts 180°
2026-04-26 03:35 33.94116 -118.40837 129 ft 3 kts 175°
2026-04-26 03:35 33.94090 -118.40834 128 ft 4 kts 173°
2026-04-26 03:36 33.94075 -118.40831 130 ft 0 kts 172°
2026-04-26 03:38 33.94071 -118.40831 133 ft 2 kts 172°
2026-04-26 03:39 33.94048 -118.40827 131 ft 5 kts 172°
2026-04-26 03:39 33.94007 -118.40820 131 ft 7 kts 173°
2026-04-26 03:39 33.93956 -118.40813 128 ft 7 kts 173°
2026-04-26 03:39 33.93908 -118.40815 131 ft 7 kts 200°
2026-04-26 03:40 33.93877 -118.40852 131 ft 6 kts 246°
2026-04-26 03:40 33.93867 -118.40911 125 ft 10 kts 262°
2026-04-26 03:40 33.93861 -118.40989 132 ft 9 kts 266°
2026-04-26 03:40 33.93858 -118.41023 133 ft 8 kts 260°
2026-04-26 03:41 33.93850 -118.41072 130 ft 7 kts 260°
2026-04-26 03:41 33.93859 -118.41147 130 ft 9 kts 302°
2026-04-26 03:41 33.93910 -118.41171 129 ft 10 kts 354°
2026-04-26 03:41 33.93996 -118.41182 133 ft 15 kts 353°
2026-04-26 03:42 33.94113 -118.41199 131 ft 19 kts 352°
2026-04-26 03:42 33.94257 -118.41221 133 ft 22 kts 353°
2026-04-26 03:42 33.94414 -118.41246 130 ft 22 kts 352°
2026-04-26 03:42 33.94562 -118.41265 133 ft 21 kts 353°
2026-04-26 03:43 33.94693 -118.41285 127 ft 17 kts 353°
2026-04-26 03:43 33.94786 -118.41260 133 ft 13 kts 55°
2026-04-26 03:43 33.94800 -118.41210 129 ft 15 kts 78°
2026-04-26 03:43 33.94816 -118.41079 133 ft 16 kts 83°
2026-04-26 03:44 33.94830 -118.40945 130 ft 16 kts 82°
2026-04-26 03:44 33.94843 -118.40813 133 ft 17 kts 83°
2026-04-26 03:44 33.94859 -118.40652 133 ft 20 kts 83°
2026-04-26 03:44 33.94875 -118.40492 125 ft 20 kts 83°
2026-04-26 03:45 33.94892 -118.40325 133 ft 20 kts 83°
2026-04-26 03:45 33.94908 -118.40167 130 ft 18 kts 83°
2026-04-26 03:45 33.94922 -118.40034 133 ft 12 kts 83°
2026-04-26 03:45 33.94933 -118.39967 133 ft 3 kts 69°
2026-04-26 03:46 33.94937 -118.39956 128 ft 5 kts 63°
2026-04-26 03:46 33.94977 -118.39917 129 ft 10 kts 13°
2026-04-26 03:46 33.95001 -118.39915 130 ft 10 kts 353°
2026-04-26 03:47 33.95013 -118.40239 130 ft 53 kts 263°
2026-04-26 03:47 33.94941 -118.40935 133 ft 112 kts 263°
2026-04-26 03:47 33.94873 -118.41613 131 ft 137 kts 263°
2026-04-26 03:47 33.94734 -118.42941 217 ft 180 kts 263°
2026-04-26 03:48 33.94562 -118.44575 647 ft 212 kts 261°
2026-04-26 03:48 33.94350 -118.46386 1439 ft 227 kts 264°
2026-04-26 03:48 33.94279 -118.48331 2373 ft 234 kts 269°
2026-04-26 03:48 33.94258 -118.50216 3415 ft 236 kts 269°
2026-04-26 03:49 33.94159 -118.52266 4545 ft 238 kts 264°
2026-04-26 03:49 33.93979 -118.54254 5586 ft 240 kts 263°
2026-04-26 03:49 33.93798 -118.56257 6584 ft 242 kts 264°
2026-04-26 03:49 33.93642 -118.58281 7535 ft 244 kts 264°
2026-04-26 03:50 33.93488 -118.60332 8477 ft 246 kts 264°
2026-04-26 03:50 33.93323 -118.62398 9391 ft 250 kts 263°
2026-04-26 03:50 33.93156 -118.64498 10256 ft 254 kts 263°
2026-04-26 03:50 33.92985 -118.66685 10448 ft 266 kts 263°
2026-04-26 03:51 33.92815 -118.68926 10442 ft 275 kts 263°
2026-04-26 03:51 33.92632 -118.71266 10430 ft 287 kts 264°
2026-04-26 03:51 33.92444 -118.73743 10523 ft 306 kts 264°
2026-04-26 03:51 33.92240 -118.76359 10835 ft 322 kts 264°
2026-04-26 03:52 33.92025 -118.79103 11302 ft 336 kts 264°
2026-04-26 03:52 33.91825 -118.81951 11872 ft 345 kts 265°
2026-04-26 03:52 33.91711 -118.84857 12619 ft 350 kts 270°
2026-04-26 03:52 33.91819 -118.87808 13398 ft 354 kts 272°
2026-04-26 03:53 33.91927 -118.90786 14116 ft 357 kts 271°
2026-04-26 03:53 33.92009 -118.93743 14823 ft 360 kts 271°
2026-04-26 03:53 33.92099 -118.96766 15535 ft 363 kts 272°
2026-04-26 03:53 33.92629 -118.99750 16204 ft 368 kts 285°
2026-04-26 03:54 33.93530 -119.02657 16880 ft 373 kts 289°
2026-04-26 03:54 33.94552 -119.05543 17549 ft 376 kts 291°
2026-04-26 03:54 33.95696 -119.08399 18186 ft 382 kts 296°
2026-04-26 03:54 33.97117 -119.11125 18750 ft 386 kts 298°
2026-04-26 03:55 33.98549 -119.13869 19299 ft 388 kts 298°
2026-04-26 03:55 34.00202 -119.16470 19834 ft 397 kts 309°
2026-04-26 03:55 34.02200 -119.18800 20369 ft 401 kts 312°
2026-04-26 03:55 34.04281 -119.21060 20894 ft 405 kts 314°
2026-04-26 03:56 34.06422 -119.23287 21406 ft 409 kts 316°
2026-04-26 03:56 34.08743 -119.25318 21904 ft 414 kts 320°
2026-04-26 03:56 34.11111 -119.27317 22381 ft 417 kts 319°
2026-04-26 03:56 34.13479 -119.29361 22870 ft 419 kts 319°
2026-04-26 03:57 34.15857 -119.31417 23340 ft 422 kts 319°
2026-04-26 03:57 34.18258 -119.33484 23757 ft 425 kts 319°
2026-04-26 03:57 34.20672 -119.35563 24128 ft 427 kts 319°
2026-04-26 03:57 34.23102 -119.37662 24492 ft 430 kts 319°
2026-04-26 03:58 34.25545 -119.39772 24859 ft 433 kts 319°
2026-04-26 03:58 34.27962 -119.41879 25189 ft 434 kts 316°
2026-04-26 03:58 34.30000 -119.44501 25520 ft 425 kts 299°
2026-04-26 03:58 34.31229 -119.47708 25872 ft 418 kts 282°
2026-04-26 03:59 34.31540 -119.51172 26221 ft 414 kts 265°
2026-04-26 03:59 34.30904 -119.54561 26580 ft 415 kts 248°
2026-04-26 03:59 34.29399 -119.57541 26938 ft 419 kts 233°
2026-04-26 03:59 34.27576 -119.60289 27221 ft 419 kts 238°
2026-04-26 04:00 34.26244 -119.63416 27552 ft 419 kts 246°
2026-04-26 04:00 34.25090 -119.66665 27874 ft 420 kts 248°
2026-04-26 04:00 34.24058 -119.69979 28167 ft 421 kts 250°
2026-04-26 04:00 34.23019 -119.73293 28458 ft 423 kts 250°
2026-04-26 04:01 34.22293 -119.76736 28731 ft 424 kts 257°
2026-04-26 04:01 34.21240 -119.80058 28984 ft 426 kts 243°
2026-04-26 04:01 34.20023 -119.83313 29215 ft 427 kts 254°
2026-04-26 04:01 34.19682 -119.86883 29503 ft 432 kts 270°
2026-04-26 04:02 34.20282 -119.90407 29752 ft 441 kts 287°
2026-04-26 04:02 34.21572 -119.93803 29913 ft 448 kts 291°
2026-04-26 04:02 34.22952 -119.97203 29938 ft 452 kts 291°
2026-04-26 04:02 34.24240 -120.00636 29927 ft 438 kts 289°
2026-04-26 04:03 34.25369 -120.03992 29929 ft 427 kts 287°
2026-04-26 04:03 34.27321 -120.10781 29942 ft 426 kts 280°
2026-04-26 04:04 34.28971 -120.17705 29957 ft 429 kts 280°
2026-04-26 04:04 34.30261 -120.24754 29962 ft 431 kts 279°
2026-04-26 04:05 34.31594 -120.31843 29964 ft 433 kts 279°
2026-04-26 04:05 34.32922 -120.38976 29971 ft 436 kts 279°
2026-04-26 04:06 34.33582 -120.46211 29966 ft 433 kts 259°
2026-04-26 04:06 34.31788 -120.53143 30016 ft 432 kts 246°
2026-04-26 04:07 34.29197 -120.59643 30030 ft 432 kts 245°